Location: Enborne
(51.3833°N, 1.3667°W)
Time: 17:02:30
(UTC+00:00)

Meteor 2-13 Rocket - Pass Details

Date: 18 September 2020
Orbit: 935 x 958 km, 82.5° (Epoch: 30 October)

Event Time Altitude Azimuth Distance (km) Brightness Sun altitude
Rises 19:56:10 0° 350° (N) 3,653 8.0 -16.5°
Reaches altitude 10° 19:58:42 10° 353° (N) 2,703 7.2 -16.9°
Maximum altitude 20:04:53 68° 77° (ENE) 1,030 4.4 -17.8°
Enters shadow 20:09:03 21° 156° (SSE) 1,983 5.7 -18.4°
